ARIANE 44LP DEB, 25540

Orbit data source: Space-Track

ARIANE 44LP DEB, 25540 is space debris in HEO originally from a launch on Sun, 11 Dec 1988 UTC launched from the French Guiana (FRGUI). Debris objects in space refer to the collection of defunct objects orbiting the Earth. Examples of debris include non-operational satellites, rocket bodies, and fragments generated from explosions, collisions, or faulty payload assembly.

Loading next visibility...
Identifier
25540, 1988-109G
Orbit
HEO
Country
Flag of FRFR
Related business
Manufacturer
Unknown
Mission
Spacecraft
Bus & Motor
Unknown
Mass
Unknown
Launch date (UTC)
1988-12-11 (37 years ago)
Launch vehicle
Unknown
Launch site
French Guiana (FRGUI)
Object type
Payload
Rocket body
Debris
Shape & HBR
Unknown
Radar Cross Section
Medium (>0.1 m² and <1 m²)

Expand to show TLE details & history
Last TLE update: 1 day ago

TLE from 1 day ago
0 ARIANE 44LP DEB
1 25540U 88109G   25250.61258560  .00002203  00000-0  21914-2 0  9995
2 25540   6.7302  98.6994 6581825 327.3320   5.3077  3.13237632266349
Epoch: 2025-09-07T14:42Z
TLE epoch observation values (Epoch: 2025-09-07T14:42:07.395Z)
Latitude
0.00039°
Longitude
-108.68654°
Altitude
837.327 km
Speed
9.501 km/s
True Right ascension
06h 35m 05s
True Declination
0° 00' 01"
Sunlit
Object was in daylight at epoch
Visualization orbit readout
Latitude
Unknown
Longitude
Unknown
Altitude
Unknown
Speed
Unknown
Apparent Right ascension
Unknown
Apparent Declination
Unknown
Sunlit
N/A
Visualization observer readout
Local Sidereal Time
07:00:30
Azimuth
Unknown
Elevation
Unknown
Doppler factor
Unknown
Orbital elements
Apogee altitude
26,348.239 km
Perigee altitude
368.073 km
Semi-major axis
19,736.293 km
Eccentricity
0.65818
Inclination
6.7302°
RAAN
98.6994°
Arg. of periapsis
327.332°
True anomaly
32.72633°
Mean anomaly
5.3077°
Eccentric anomaly
15.18667°
Mean motion
0.78279 °/min
Orbital period
459.89 mins
BSTAR
0.0021914
Loading maneuver chart data...
Computing Atmospheric mass density...
Loading historical data...
Loading historical data...
Loading historical data...
Loading historical data...
Loading historical data...
Loading historical data...
Loading historical data...

Documentation

Showing up to 5 results
|